Flag for Germany Weather past 2 weeks in Burgdorf, Lower Saxony, Germany

Now
59 °F

Scattered clouds.


Feels Like: 57 °F
Forecast: 55 / 64 °F
Wind: 10 mph from Southwest

Location: Celle Airport

Current Time: Jul 28, 2015 at 9:49:31 PM

Latest Report: Jul 28, 2015 at 9:20 PM


Visibility: N/A

Pressure: 29.68 "Hg

Humidity: 77%

Dew point: 52 °F

Location of BurgdorfLocation

Historic Weather in Burgdorf — Graph

°F

Burgdorf temperature yesterday

Maximum temperature yesterday: 66 °F (at 2:20 PM)
Minimum temperature yesterday: 55 °F (at 3:20 AM)
Average temperature yesterday: 60 °F

Past Weeks' High & Low Weather Summary

 TemperatureHumidityPressure
High90 °F (Jul 17, 3:20 PM)100% (Jul 14, 1:20 AM)30.12 "Hg (Jul 14, 1:20 AM)
Low52 °F (Jul 24, 4:20 AM)29% (Jul 17, 5:20 PM)29.47 "Hg (Jul 25, 1:20 PM)
Average66 °F74%29.86 "Hg
* Reported Jul 13 8:20 PM — Jul 28 8:20 PM, Burgdorf, Weather by CustomWeather, © 2015

Note: Actual official high and low records may vary slightly from our data, if they occured in-between our weather recording intervals... More about our weather records

Advertising

Burgdorf weather history for previous 24 hours

 ConditionsComfort  
Time TempWeatherWind HumidityBarometerVisibility
8:20 PM
Tue, Jul 28
59 °FBroken clouds.6 mph82%29.68 "HgN/A
7:20 PM57 °FBroken clouds.12 mph88%29.68 "HgN/A
6:20 PM59 °FSprinkles. Broken clouds.13 mph82%29.65 "HgN/A
5:20 PM61 °FScattered showers. Partly sunny.10 mph77%29.65 "HgN/A
5:03 PM64 °FSprinkles. Broken clouds.20 mph60%29.65 "Hg5 mi
4:20 PM66 °FScattered showers. Partly sunny.21 mph56%29.62 "HgN/A
3:20 PM63 °FPartly sunny.20 mph73%29.65 "HgN/A
2:20 PM61 °FSprinkles. Broken clouds.18 mph83%29.65 "Hg4 mi
1:20 PM64 °FPartly sunny.24 mph64%29.62 "HgN/A
12:20 PM64 °FPartly sunny.23 mph60%29.62 "HgN/A
11:20 AM63 °FBroken clouds.21 mph68%29.62 "HgN/A
10:20 AM61 °FBroken clouds.18 mph72%29.59 "HgN/A
9:20 AM59 °FPartly sunny.17 mph77%29.59 "HgN/A
8:20 AM59 °FPartly sunny.20 mph72%29.59 "HgN/A
7:20 AM59 °FBroken clouds.18 mph72%29.56 "HgN/A
6:20 AM59 °FPassing clouds.15 mph72%29.56 "HgN/A
5:20 AM59 °FPartly cloudy.17 mph72%29.56 "HgN/A
4:20 AM59 °FPartly cloudy.16 mph77%29.56 "HgN/A
3:20 AM59 °FPartly cloudy.9 mph82%29.56 "HgN/A
2:20 AM61 °FPartly cloudy.10 mph83%29.56 "HgN/A
1:20 AM61 °FPartly cloudy.12 mph83%29.56 "HgN/A
12:20 AM63 °FPassing clouds.10 mph83%29.56 "HgN/A
11:20 PM
Mon, Jul 27
61 °FPassing clouds.7 mph88%29.56 "HgN/A
10:20 PM61 °FPartly sunny.13 mph88%29.56 "HgN/A
9:58 PM61 °FRain showers. Partly sunny.7 mph88%29.56 "Hg2 mi
9:20 PM63 °FPartly sunny.15 mph77%29.56 "HgN/A
Weather by CustomWeather, © 2015

See weather overviewHow to use our weather pages